Time,TemperatureF,DewpointF,PressureIn,WindDirection,WindDirectionDegrees,WindSpeedMPH,WindSpeedGustMPH,Humidity,HourlyPrecipIn,Conditions,Clouds,dailyrainin,SoftwareType,DateUTC
2013-01-25 00:00:00,52.6,49.4,30.15,SW,219,0.0,0.0,89,0.00,,,0.00,Wunderground v.1.13,2013-01-25 08:00:00,
2013-01-25 00:10:00,52.6,49.4,30.14,SW,219,0.0,0.0,89,0.00,,,0.00,Wunderground v.1.13,2013-01-25 08:10:00,
2013-01-25 00:20:00,52.7,49.5,30.14,SW,219,0.0,0.0,89,0.00,,,0.00,Wunderground v.1.13,2013-01-25 08:20:00,
2013-01-25 00:25:00,52.7,49.5,30.14,SW,219,0.0,0.0,89,0.00,,,0.00,Wunderground v.1.13,2013-01-25 08:25:00,
2013-01-25 00:35:00,52.7,49.5,30.14,SW,219,0.0,0.0,89,0.00,,,0.00,Wunderground v.1.13,2013-01-25 08:35:00,
2013-01-25 00:45:00,52.7,49.5,30.14,SW,219,0.0,0.0,89,0.00,,,0.00,Wunderground v.1.13,2013-01-25 08:45:00,
2013-01-25 00:50:00,52.7,49.5,30.14,SW,219,0.0,0.0,89,0.00,,,0.00,Wunderground v.1.13,2013-01-25 08:50:00,
2013-01-25 01:00:00,52.7,49.5,30.14,SW,219,0.0,0.0,89,0.08,,,0.02,Wunderground v.1.13,2013-01-25 09:00:00,
2013-01-25 01:10:00,52.8,49.6,30.14,SW,219,0.0,0.0,89,0.06,,,0.02,Wunderground v.1.13,2013-01-25 09:10:00,
2013-01-25 01:20:00,52.8,49.6,30.14,SW,219,0.0,0.0,89,0.00,,,0.02,Wunderground v.1.13,2013-01-25 09:20:00,
2013-01-25 01:30:00,52.9,49.7,30.13,SW,219,0.0,0.0,89,0.00,,,0.02,Wunderground v.1.13,2013-01-25 09:30:00,
2013-01-25 01:40:00,52.9,49.7,30.14,SW,219,0.0,0.0,89,0.00,,,0.02,Wunderground v.1.13,2013-01-25 09:40:00,
2013-01-25 01:45:00,52.9,49.7,30.14,SW,219,0.0,0.0,89,0.00,,,0.02,Wunderground v.1.13,2013-01-25 09:45:00,
2013-01-25 01:55:00,52.8,49.6,30.14,SW,219,0.0,0.0,89,0.00,,,0.02,Wunderground v.1.13,2013-01-25 09:55:00,
2013-01-25 02:00:00,52.8,49.6,30.14,SW,219,0.0,0.0,89,0.00,,,0.02,Wunderground v.1.13,2013-01-25 10:00:00,
2013-01-25 02:10:00,52.8,49.6,30.14,SW,219,0.0,0.0,89,0.00,,,0.02,Wunderground v.1.13,2013-01-25 10:10:00,
2013-01-25 02:20:00,52.8,49.6,30.14,SW,219,0.0,0.0,89,0.00,,,0.02,Wunderground v.1.13,2013-01-25 10:20:00,
2013-01-25 02:30:00,52.7,49.5,30.14,SW,219,0.0,0.0,89,0.00,,,0.02,Wunderground v.1.13,2013-01-25 10:30:00,
2013-01-25 02:40:00,52.7,49.5,30.14,SW,219,0.0,0.0,89,0.00,,,0.02,Wunderground v.1.13,2013-01-25 10:40:00,
2013-01-25 02:45:00,52.6,49.4,30.13,SW,219,0.0,0.0,89,0.00,,,0.02,Wunderground v.1.13,2013-01-25 10:45:00,
2013-01-25 02:55:00,52.6,49.4,30.13,SW,219,0.0,0.0,89,0.00,,,0.02,Wunderground v.1.13,2013-01-25 10:55:00,
2013-01-25 03:00:00,52.6,49.4,30.13,SW,219,0.0,0.0,89,0.00,,,0.02,Wunderground v.1.13,2013-01-25 11:00:00,
2013-01-25 03:10:00,52.5,49.4,30.13,SW,219,0.0,0.0,89,0.00,,,0.02,Wunderground v.1.13,2013-01-25 11:10:00,
2013-01-25 03:15:00,52.5,50.2,30.13,SW,219,0.0,0.0,92,0.00,,,0.02,Wunderground v.1.13,2013-01-25 11:15:00,
2013-01-25 03:20:00,52.5,49.4,30.13,SW,219,0.0,0.0,89,0.00,,,0.02,Wunderground v.1.13,2013-01-25 11:20:00,
2013-01-25 03:30:00,52.5,49.4,30.13,SW,219,0.0,0.0,89,0.00,,,0.02,Wunderground v.1.13,2013-01-25 11:30:00,
2013-01-25 03:40:00,52.5,50.2,30.13,SW,219,0.0,0.0,92,0.00,,,0.02,Wunderground v.1.13,2013-01-25 11:40:00,
2013-01-25 03:50:00,52.6,49.4,30.12,SW,219,0.0,0.0,89,0.00,,,0.02,Wunderground v.1.13,2013-01-25 11:50:00,
2013-01-25 04:00:00,52.6,49.4,30.12,SW,219,0.0,0.0,89,0.00,,,0.02,Wunderground v.1.13,2013-01-25 12:00:00,
2013-01-25 04:05:00,52.6,49.4,30.12,SW,219,0.0,0.0,89,0.00,,,0.02,Wunderground v.1.13,2013-01-25 12:05:00,
2013-01-25 04:15:00,52.6,49.4,30.12,SW,219,0.0,0.0,89,0.00,,,0.02,Wunderground v.1.13,2013-01-25 12:15:00,
2013-01-25 04:20:00,52.6,49.4,30.12,SW,219,0.0,0.0,89,0.00,,,0.02,Wunderground v.1.13,2013-01-25 12:20:00,
2013-01-25 04:30:00,52.7,49.5,30.11,SW,219,0.0,0.0,89,0.00,,,0.02,Wunderground v.1.13,2013-01-25 12:30:00,
2013-01-25 04:40:00,52.7,49.5,30.11,SW,219,0.0,0.0,89,0.00,,,0.02,Wunderground v.1.13,2013-01-25 12:40:00,
2013-01-25 04:50:00,52.7,49.5,30.11,SW,219,0.0,0.0,89,0.00,,,0.02,Wunderground v.1.13,2013-01-25 12:50:00,
2013-01-25 04:55:00,52.7,49.5,30.11,SW,219,0.0,0.0,89,0.00,,,0.02,Wunderground v.1.13,2013-01-25 12:55:00,
2013-01-25 05:05:00,52.6,49.4,30.11,SW,219,0.0,0.0,89,0.00,,,0.02,Wunderground v.1.13,2013-01-25 13:05:00,
2013-01-25 05:10:00,52.6,49.4,30.11,SW,219,0.0,0.0,89,0.00,,,0.02,Wunderground v.1.13,2013-01-25 13:10:00,
2013-01-25 05:20:00,52.5,49.4,30.11,SW,219,0.0,0.0,89,0.00,,,0.02,Wunderground v.1.13,2013-01-25 13:20:00,
2013-01-25 05:30:00,52.5,49.4,30.11,SW,219,0.0,0.0,89,0.00,,,0.02,Wunderground v.1.13,2013-01-25 13:30:00,
2013-01-25 05:40:00,52.4,49.3,30.11,SW,219,0.0,0.0,89,0.00,,,0.02,Wunderground v.1.13,2013-01-25 13:40:00,
2013-01-25 05:50:00,52.4,49.3,30.11,SW,219,0.0,0.0,89,0.00,,,0.02,Wunderground v.1.13,2013-01-25 13:50:00,
2013-01-25 05:55:00,52.4,49.3,30.11,SW,219,0.0,0.0,89,0.00,,,0.02,Wunderground v.1.13,2013-01-25 13:55:00,
2013-01-25 06:05:00,52.3,49.2,30.12,SW,219,0.0,0.0,89,0.00,,,0.02,Wunderground v.1.13,2013-01-25 14:05:00,
2013-01-25 06:10:00,52.4,49.3,30.12,SW,219,0.0,0.0,89,0.00,,,0.02,Wunderground v.1.13,2013-01-25 14:10:00,
2013-01-25 06:20:00,52.3,49.2,30.12,SW,219,0.0,0.0,89,0.00,,,0.02,Wunderground v.1.13,2013-01-25 14:20:00,
2013-01-25 06:30:00,52.3,49.2,30.11,SW,219,0.0,0.0,89,0.00,,,0.02,Wunderground v.1.13,2013-01-25 14:30:00,
2013-01-25 06:40:00,52.3,49.2,30.12,SW,219,0.0,0.0,89,0.00,,,0.02,Wunderground v.1.13,2013-01-25 14:40:00,
2013-01-25 06:45:00,52.2,49.1,30.12,SW,219,0.0,0.0,89,0.00,,,0.02,Wunderground v.1.13,2013-01-25 14:45:00,
2013-01-25 06:55:00,52.3,49.2,30.12,SW,219,0.0,0.0,89,0.00,,,0.02,Wunderground v.1.13,2013-01-25 14:55:00,
2013-01-25 07:05:00,52.3,49.2,30.12,SW,219,0.0,0.0,89,0.00,,,0.02,Wunderground v.1.13,2013-01-25 15:05:00,
2013-01-25 07:15:00,52.2,49.1,30.12,SW,219,0.0,0.0,89,0.00,,,0.02,Wunderground v.1.13,2013-01-25 15:15:00,
2013-01-25 07:20:00,52.2,49.1,30.12,SW,219,0.0,0.0,89,0.00,,,0.02,Wunderground v.1.13,2013-01-25 15:20:00,
2013-01-25 07:30:00,52.2,49.1,30.12,SW,219,0.0,0.0,89,0.00,,,0.02,Wunderground v.1.13,2013-01-25 15:30:00,
2013-01-25 07:40:00,52.2,49.1,30.12,SW,219,0.0,0.0,89,0.00,,,0.02,Wunderground v.1.13,2013-01-25 15:40:00,
2013-01-25 07:50:00,52.2,49.1,30.12,SW,219,0.0,0.0,89,0.00,,,0.02,Wunderground v.1.13,2013-01-25 15:50:00,
2013-01-25 07:55:00,52.2,49.1,30.12,SW,219,0.0,0.0,89,0.00,,,0.02,Wunderground v.1.13,2013-01-25 15:55:00,
2013-01-25 08:05:00,52.2,49.1,30.12,SW,219,0.0,0.0,89,0.00,,,0.02,Wunderground v.1.13,2013-01-25 16:05:00,
2013-01-25 08:10:00,52.2,49.1,30.12,SW,219,0.0,0.0,89,0.00,,,0.02,Wunderground v.1.13,2013-01-25 16:10:00,
2013-01-25 08:20:00,52.2,49.1,30.12,SW,219,0.0,0.0,89,0.00,,,0.02,Wunderground v.1.13,2013-01-25 16:20:00,
2013-01-25 08:30:00,52.3,49.2,30.11,SW,219,0.0,0.0,89,0.00,,,0.02,Wunderground v.1.13,2013-01-25 16:30:00,
2013-01-25 08:40:00,52.4,49.3,30.11,SW,219,0.0,0.0,89,0.00,,,0.02,Wunderground v.1.13,2013-01-25 16:40:00,
2013-01-25 08:50:00,52.5,49.4,30.11,SW,219,0.0,0.0,89,0.00,,,0.02,Wunderground v.1.13,2013-01-25 16:50:00,
2013-01-25 09:00:00,52.7,49.5,30.11,SW,219,0.0,0.0,89,0.00,,,0.02,Wunderground v.1.13,2013-01-25 17:00:00,
2013-01-25 09:05:00,52.8,49.9,30.11,SW,219,0.0,0.0,90,0.00,,,0.02,Wunderground v.1.13,2013-01-25 17:05:00,
2013-01-25 09:15:00,53.1,50.2,30.12,SW,219,0.0,0.0,90,0.00,,,0.02,Wunderground v.1.13,2013-01-25 17:15:00,
2013-01-25 09:20:00,53.2,50.3,30.12,SW,219,0.0,0.0,90,0.00,,,0.02,Wunderground v.1.13,2013-01-25 17:20:00,
2013-01-25 09:25:00,53.4,50.5,30.12,SW,219,0.0,0.0,90,0.00,,,0.02,Wunderground v.1.13,2013-01-25 17:25:00,
2013-01-25 09:35:00,53.8,50.9,30.12,SW,219,0.0,0.0,90,0.00,,,0.02,Wunderground v.1.13,2013-01-25 17:35:00,
2013-01-25 09:40:00,54.0,51.1,30.13,SW,219,0.0,0.0,90,0.00,,,0.02,Wunderground v.1.13,2013-01-25 17:40:00,
2013-01-25 09:50:00,54.4,51.5,30.13,SW,219,0.0,0.0,90,0.00,,,0.02,Wunderground v.1.13,2013-01-25 17:50:00,
2013-01-25 10:00:00,54.6,51.7,30.13,SW,219,0.0,0.0,90,0.00,,,0.02,Wunderground v.1.13,2013-01-25 18:00:00,
2013-01-25 10:10:00,55.0,52.1,30.12,SW,219,0.0,0.0,90,0.00,,,0.02,Wunderground v.1.13,2013-01-25 18:10:00,
2013-01-25 10:20:00,55.3,52.4,30.11,SW,219,0.0,0.0,90,0.00,,,0.02,Wunderground v.1.13,2013-01-25 18:20:00,
2013-01-25 10:30:00,55.6,52.7,30.11,SW,219,0.0,0.0,90,0.00,,,0.02,Wunderground v.1.13,2013-01-25 18:30:00,
2013-01-25 10:40:00,55.8,52.9,30.11,SW,219,0.0,0.0,90,0.00,,,0.02,Wunderground v.1.13,2013-01-25 18:40:00,
2013-01-25 10:45:00,55.9,53.0,30.11,SW,219,0.0,0.0,90,0.00,,,0.02,Wunderground v.1.13,2013-01-25 18:45:00,
2013-01-25 10:50:00,55.9,53.0,30.11,SW,219,0.0,0.0,90,0.00,,,0.02,Wunderground v.1.13,2013-01-25 18:50:00,
2013-01-25 11:00:00,56.1,53.2,30.11,SW,219,0.0,0.0,90,0.00,,,0.02,Wunderground v.1.13,2013-01-25 19:00:00,
2013-01-25 11:10:00,56.3,53.4,30.11,SW,219,0.0,0.0,90,0.00,,,0.02,Wunderground v.1.13,2013-01-25 19:10:00,
2013-01-25 11:20:00,56.4,53.5,30.10,SW,219,0.0,0.0,90,0.00,,,0.02,Wunderground v.1.13,2013-01-25 19:20:00,
2013-01-25 11:25:00,56.4,53.5,30.09,SW,219,0.0,0.0,90,0.00,,,0.02,Wunderground v.1.13,2013-01-25 19:25:00,
2013-01-25 11:30:00,56.4,53.5,30.09,SW,219,0.0,0.0,90,0.00,,,0.02,Wunderground v.1.13,2013-01-25 19:30:00,
2013-01-25 11:40:00,56.5,53.6,30.09,SW,219,0.0,0.0,90,0.00,,,0.02,Wunderground v.1.13,2013-01-25 19:40:00,
2013-01-25 11:50:00,56.6,53.7,30.08,SW,219,0.0,0.0,90,0.00,,,0.02,Wunderground v.1.13,2013-01-25 19:50:00,
2013-01-25 12:00:00,56.8,53.9,30.07,SW,219,0.0,0.0,90,0.00,,,0.02,Wunderground v.1.13,2013-01-25 20:00:00,
2013-01-25 12:10:00,58.1,55.5,30.07,West,281,0.0,0.0,91,0.00,,,0.02,Wunderground v.1.13,2013-01-25 20:10:00,
2013-01-25 12:15:00,58.2,55.3,30.06,West,281,0.0,0.0,90,0.00,,,0.02,Wunderground v.1.13,2013-01-25 20:15:00,
2013-01-25 12:25:00,58.2,55.3,30.06,West,281,0.0,0.0,90,0.00,,,0.02,Wunderground v.1.13,2013-01-25 20:25:00,
2013-01-25 12:35:00,58.2,55.3,30.05,South,172,0.0,0.0,90,0.00,,,0.02,Wunderground v.1.13,2013-01-25 20:35:00,
2013-01-25 12:40:00,58.3,55.4,30.05,South,173,0.0,0.0,90,0.00,,,0.02,Wunderground v.1.13,2013-01-25 20:40:00,
2013-01-25 12:50:00,58.5,55.6,30.05,South,173,0.0,0.0,90,0.00,,,0.02,Wunderground v.1.13,2013-01-25 20:50:00,
2013-01-25 13:00:00,58.9,56.0,30.05,West,267,0.0,0.0,90,0.00,,,0.02,Wunderground v.1.13,2013-01-25 21:00:00,
2013-01-25 13:10:00,59.3,56.4,30.05,West,268,0.0,0.0,90,0.00,,,0.02,Wunderground v.1.13,2013-01-25 21:10:00,
2013-01-25 13:20:00,59.9,56.6,30.04,SSW,200,0.0,0.0,89,0.00,,,0.02,Wunderground v.1.13,2013-01-25 21:20:00,
2013-01-25 13:25:00,60.0,56.4,30.04,SSW,200,0.0,0.0,88,0.00,,,0.02,Wunderground v.1.13,2013-01-25 21:25:00,
2013-01-25 13:30:00,60.0,56.4,30.04,SSW,200,0.0,0.0,88,0.00,,,0.02,Wunderground v.1.13,2013-01-25 21:30:00,
2013-01-25 13:40:00,60.0,56.4,30.04,WSW,238,0.0,0.0,88,0.00,,,0.02,Wunderground v.1.13,2013-01-25 21:40:00,
2013-01-25 13:50:00,60.0,56.4,30.03,WSW,238,0.0,0.0,88,0.00,,,0.02,Wunderground v.1.13,2013-01-25 21:50:00,
2013-01-25 14:00:00,60.0,56.4,30.03,WNW,286,0.0,0.0,88,0.00,,,0.02,Wunderground v.1.13,2013-01-25 22:00:00,
2013-01-25 14:10:00,60.1,56.2,30.03,WNW,286,0.0,0.0,87,0.00,,,0.02,Wunderground v.1.13,2013-01-25 22:10:00,
2013-01-25 14:15:00,60.2,56.3,30.03,WNW,286,0.0,0.0,87,0.00,,,0.02,Wunderground v.1.13,2013-01-25 22:15:00,
2013-01-25 14:25:00,60.3,56.4,30.02,WNW,286,0.0,0.0,87,0.00,,,0.02,Wunderground v.1.13,2013-01-25 22:25:00,
2013-01-25 14:35:00,60.4,56.5,30.02,WNW,291,0.0,0.0,87,0.00,,,0.02,Wunderground v.1.13,2013-01-25 22:35:00,
2013-01-25 14:40:00,60.4,56.5,30.02,WNW,291,0.0,0.0,87,0.00,,,0.02,Wunderground v.1.13,2013-01-25 22:40:00,
2013-01-25 14:50:00,60.5,56.3,30.02,WNW,291,0.0,0.0,86,0.00,,,0.02,Wunderground v.1.13,2013-01-25 22:50:00,
2013-01-25 15:00:00,60.6,56.4,30.02,West,261,0.0,0.0,86,0.00,,,0.02,Wunderground v.1.13,2013-01-25 23:00:00,
2013-01-25 15:05:00,60.7,56.5,30.02,West,261,0.0,0.0,86,0.00,,,0.02,Wunderground v.1.13,2013-01-25 23:05:00,
2013-01-25 15:15:00,60.7,56.2,30.01,West,261,0.0,0.0,85,0.00,,,0.02,Wunderground v.1.13,2013-01-25 23:15:00,
2013-01-25 15:20:00,60.8,56.3,30.01,West,261,0.0,0.0,85,0.00,,,0.02,Wunderground v.1.13,2013-01-25 23:20:00,
2013-01-25 15:30:00,60.9,56.4,30.01,West,261,0.0,0.0,85,0.00,,,0.02,Wunderground v.1.13,2013-01-25 23:30:00,
2013-01-25 15:40:00,61.0,56.5,30.01,West,261,0.0,0.0,85,0.00,,,0.02,Wunderground v.1.13,2013-01-25 23:40:00,
2013-01-25 15:50:00,61.0,56.1,30.01,West,261,0.0,0.0,84,0.00,,,0.02,Wunderground v.1.13,2013-01-25 23:50:00,
2013-01-25 16:00:00,61.0,56.1,30.01,West,261,0.0,0.0,84,0.00,,,0.02,Wunderground v.1.13,2013-01-26 00:00:00,
2013-01-25 16:05:00,60.9,55.7,30.01,West,261,0.0,0.0,83,0.00,,,0.02,Wunderground v.1.13,2013-01-26 00:05:00,
2013-01-25 16:15:00,60.8,55.6,30.01,West,261,0.0,0.0,83,0.00,,,0.02,Wunderground v.1.13,2013-01-26 00:15:00,
2013-01-25 16:20:00,60.8,55.6,30.01,West,261,0.0,0.0,83,0.00,,,0.02,Wunderground v.1.13,2013-01-26 00:20:00,
2013-01-25 16:30:00,60.7,55.5,30.01,West,261,0.0,0.0,83,0.00,,,0.02,Wunderground v.1.13,2013-01-26 00:30:00,
2013-01-25 16:40:00,60.5,55.3,30.00,West,261,0.0,0.0,83,0.00,,,0.02,Wunderground v.1.13,2013-01-26 00:40:00,
2013-01-25 16:50:00,60.3,55.1,30.00,West,261,0.0,0.0,83,0.00,,,0.02,Wunderground v.1.13,2013-01-26 00:50:00,
2013-01-25 16:55:00,60.2,54.7,30.00,West,261,0.0,0.0,82,0.00,,,0.02,Wunderground v.1.13,2013-01-26 00:55:00,
2013-01-25 17:00:00,60.0,54.5,30.00,West,261,0.0,0.0,82,0.00,,,0.02,Wunderground v.1.13,2013-01-26 01:00:00,
2013-01-25 17:10:00,59.6,54.1,30.00,West,261,0.0,0.0,82,0.00,,,0.02,Wunderground v.1.13,2013-01-26 01:10:00,
2013-01-25 17:20:00,59.2,53.7,30.00,West,261,0.0,0.0,82,0.00,,,0.02,Wunderground v.1.13,2013-01-26 01:20:00,
2013-01-25 17:30:00,59.0,53.5,30.00,West,261,0.0,0.0,82,0.00,,,0.02,Wunderground v.1.13,2013-01-26 01:30:00,
2013-01-25 17:35:00,58.6,53.1,30.00,West,261,0.0,0.0,82,0.00,,,0.02,Wunderground v.1.13,2013-01-26 01:35:00,
2013-01-25 17:45:00,58.2,52.7,30.00,West,261,0.0,0.0,82,0.00,,,0.02,Wunderground v.1.13,2013-01-26 01:45:00,
2013-01-25 17:50:00,58.0,52.5,30.00,West,261,0.0,0.0,82,0.00,,,0.02,Wunderground v.1.13,2013-01-26 01:50:00,
2013-01-25 18:00:00,57.6,52.1,30.00,West,261,0.0,0.0,82,0.00,,,0.02,Wunderground v.1.13,2013-01-26 02:00:00,
2013-01-25 18:10:00,57.3,51.9,30.00,West,261,0.0,0.0,82,0.00,,,0.02,Wunderground v.1.13,2013-01-26 02:10:00,
2013-01-25 18:15:00,57.1,51.7,30.00,West,261,0.0,0.0,82,0.00,,,0.02,Wunderground v.1.13,2013-01-26 02:15:00,
2013-01-25 18:25:00,56.7,51.3,30.00,West,261,0.0,0.0,82,0.00,,,0.02,Wunderground v.1.13,2013-01-26 02:25:00,
2013-01-25 18:35:00,56.4,51.0,30.00,West,261,0.0,0.0,82,0.00,,,0.02,Wunderground v.1.13,2013-01-26 02:35:00,
2013-01-25 18:40:00,56.2,50.8,30.00,West,261,0.0,0.0,82,0.00,,,0.02,Wunderground v.1.13,2013-01-26 02:40:00,
2013-01-25 18:50:00,55.9,50.5,30.00,West,261,0.0,0.0,82,0.00,,,0.02,Wunderground v.1.13,2013-01-26 02:50:00,
2013-01-25 19:00:00,55.8,50.4,30.00,West,261,0.0,0.0,82,0.00,,,0.02,Wunderground v.1.13,2013-01-26 03:00:00,
2013-01-25 19:05:00,55.6,50.2,30.00,West,261,0.0,0.0,82,0.00,,,0.02,Wunderground v.1.13,2013-01-26 03:05:00,
2013-01-25 19:15:00,55.5,50.1,30.00,West,261,0.0,0.0,82,0.00,,,0.02,Wunderground v.1.13,2013-01-26 03:15:00,
2013-01-25 19:20:00,55.4,50.0,30.00,West,261,0.0,0.0,82,0.00,,,0.02,Wunderground v.1.13,2013-01-26 03:20:00,
2013-01-25 19:30:00,55.3,50.2,30.00,West,261,0.0,0.0,83,0.00,,,0.02,Wunderground v.1.13,2013-01-26 03:30:00,
2013-01-25 19:40:00,55.1,50.0,30.00,West,261,0.0,0.0,83,0.00,,,0.02,Wunderground v.1.13,2013-01-26 03:40:00,
2013-01-25 19:50:00,55.0,49.9,30.00,West,261,0.0,0.0,83,0.00,,,0.02,Wunderground v.1.13,2013-01-26 03:50:00,
2013-01-25 19:55:00,54.9,49.8,30.00,West,261,0.0,0.0,83,0.00,,,0.02,Wunderground v.1.13,2013-01-26 03:55:00,
2013-01-25 20:05:00,54.7,49.6,30.01,West,261,0.0,0.0,83,0.00,,,0.02,Wunderground v.1.13,2013-01-26 04:05:00,
2013-01-25 20:15:00,54.5,49.4,30.00,West,261,0.0,0.0,83,0.00,,,0.02,Wunderground v.1.13,2013-01-26 04:15:00,
2013-01-25 20:20:00,54.4,49.3,30.01,West,261,0.0,0.0,83,0.00,,,0.02,Wunderground v.1.13,2013-01-26 04:20:00,
2013-01-25 20:30:00,54.2,49.1,30.01,West,261,0.0,0.0,83,0.00,,,0.02,Wunderground v.1.13,2013-01-26 04:30:00,
2013-01-25 20:40:00,54.0,49.0,30.01,West,261,0.0,0.0,83,0.00,,,0.02,Wunderground v.1.13,2013-01-26 04:40:00,
2013-01-25 20:45:00,54.0,49.3,30.01,West,261,0.0,0.0,84,0.00,,,0.02,Wunderground v.1.13,2013-01-26 04:45:00,
2013-01-25 20:55:00,53.9,49.2,30.01,West,261,0.0,0.0,84,0.00,,,0.02,Wunderground v.1.13,2013-01-26 04:55:00,
2013-01-25 21:05:00,53.7,49.0,30.01,West,261,0.0,0.0,84,0.00,,,0.02,Wunderground v.1.13,2013-01-26 05:05:00,
2013-01-25 21:10:00,53.7,49.0,30.01,West,261,0.0,0.0,84,0.00,,,0.02,Wunderground v.1.13,2013-01-26 05:10:00,
2013-01-25 21:20:00,53.6,48.9,30.01,West,261,0.0,0.0,84,0.00,,,0.02,Wunderground v.1.13,2013-01-26 05:20:00,
2013-01-25 21:25:00,53.6,48.9,30.01,West,261,0.0,0.0,84,0.00,,,0.02,Wunderground v.1.13,2013-01-26 05:25:00,
2013-01-25 21:30:00,53.5,48.8,30.01,West,261,0.0,0.0,84,0.00,,,0.02,Wunderground v.1.13,2013-01-26 05:30:00,
2013-01-25 21:40:00,53.5,48.8,30.01,West,261,0.0,0.0,84,0.00,,,0.02,Wunderground v.1.13,2013-01-26 05:40:00,
2013-01-25 21:45:00,53.4,48.7,30.01,West,261,0.0,0.0,84,0.00,,,0.02,Wunderground v.1.13,2013-01-26 05:45:00,
2013-01-25 21:55:00,53.3,48.6,30.01,West,261,0.0,0.0,84,0.00,,,0.02,Wunderground v.1.13,2013-01-26 05:55:00,
2013-01-25 22:00:00,53.2,48.5,30.01,West,261,0.0,0.0,84,0.00,,,0.02,Wunderground v.1.13,2013-01-26 06:00:00,
2013-01-25 22:10:00,53.1,48.4,30.02,West,261,0.0,0.0,84,0.00,,,0.02,Wunderground v.1.13,2013-01-26 06:10:00,
2013-01-25 22:20:00,53.0,48.3,30.02,West,261,0.0,0.0,84,0.00,,,0.02,Wunderground v.1.13,2013-01-26 06:20:00,
2013-01-25 22:25:00,52.9,48.2,30.01,West,261,0.0,0.0,84,0.00,,,0.02,Wunderground v.1.13,2013-01-26 06:25:00,
2013-01-25 22:35:00,52.8,48.1,30.02,West,261,0.0,0.0,84,0.00,,,0.02,Wunderground v.1.13,2013-01-26 06:35:00,
2013-01-25 22:40:00,52.7,48.0,30.02,West,261,0.0,0.0,84,0.00,,,0.02,Wunderground v.1.13,2013-01-26 06:40:00,
2013-01-25 22:50:00,52.6,47.9,30.02,West,261,0.0,0.0,84,0.00,,,0.02,Wunderground v.1.13,2013-01-26 06:50:00,
2013-01-25 23:00:00,52.4,47.7,30.02,West,261,0.0,0.0,84,0.00,,,0.02,Wunderground v.1.13,2013-01-26 07:00:00,
2013-01-25 23:10:00,52.2,47.5,30.01,West,261,0.0,0.0,84,0.00,,,0.02,Wunderground v.1.13,2013-01-26 07:10:00,
2013-01-25 23:15:00,52.1,47.4,30.01,West,261,0.0,0.0,84,0.00,,,0.02,Wunderground v.1.13,2013-01-26 07:15:00,
2013-01-25 23:20:00,51.9,47.2,30.02,West,261,0.0,0.0,84,0.00,,,0.02,Wunderground v.1.13,2013-01-26 07:20:00,
2013-01-25 23:30:00,51.7,47.0,30.01,West,261,0.0,0.0,84,0.00,,,0.02,Wunderground v.1.13,2013-01-26 07:30:00,
2013-01-25 23:40:00,51.4,46.7,30.01,West,261,0.0,0.0,84,0.00,,,0.02,Wunderground v.1.13,2013-01-26 07:40:00,
2013-01-25 23:50:00,51.2,46.5,30.01,West,261,0.0,0.0,84,0.00,,,0.02,Wunderground v.1.13,2013-01-26 07:50:00,
2013-01-25 23:55:00,51.1,46.4,30.00,West,261,0.0,0.0,84,0.00,,,0.02,Wunderground v.1.13,2013-01-26 07:55:00,